Location: Bailleul
(50.3375°N, 2.8513°E)
Time: 15:44:04
(UTC+00:00)

Cosmos 2237 Rocket - Pass Details

Date: 16 June 2021
Orbit: 834 x 850 km, 71.0° (Epoch: 05 August)

Event Time Altitude Azimuth Distance (km) Brightness Sun altitude
Exits shadow 23:23:27 24° 191° (S) 1,662 3.2 -16.1°
Maximum altitude 23:26:51 67° 115° (ESE) 903 2.2 -16.1°
Drops below altitude 10° 23:32:26 10° 33° (NNE) 2,457 5.4 -16.2°
Sets 23:34:54 0° 31° (NNE) 3,396 6.3 -16.2°
